timestamp,wind_dir_avg,wind_spd_max_dir,wind_spd_avg,wind_spd_gust,battery_voltage,lat,long
2017-11-24 00:00:00+00:00,262.0,264.0,15.93,20.12,,47.59359,-54.27349
2017-11-24 00:10:00+00:00,256.0,253.0,13.69,16.89,,47.59359,-54.27349
2017-11-24 00:20:00+00:00,263.0,258.0,16.27,19.02,,47.59359,-54.27349
2017-11-24 00:30:00+00:00,265.0,270.0,15.82,18.62,,47.59359,-54.27349
2017-11-24 00:40:00+00:00,263.0,261.0,15.75,17.99,,47.59359,-54.27349
2017-11-24 00:50:00+00:00,262.0,264.0,12.88,15.15,,47.59359,-54.27349
2017-11-24 01:00:00+00:00,265.0,265.0,14.96,16.95,,47.59359,-54.27349
2017-11-24 01:10:00+00:00,267.0,272.0,14.83,16.62,,47.59359,-54.27349
2017-11-24 01:20:00+00:00,268.0,275.0,13.99,16.2,,47.59359,-54.27349
2017-11-24 01:30:00+00:00,272.0,278.0,14.87,16.98,,47.59359,-54.27349
2017-11-24 01:40:00+00:00,271.0,277.0,16.82,19.59,,47.59359,-54.27349
2017-11-24 01:50:00+00:00,270.0,269.0,15.2,17.4,,47.59359,-54.27349
2017-11-24 02:00:00+00:00,265.0,265.0,12.83,14.84,,47.59359,-54.27349
2017-11-24 02:10:00+00:00,272.0,276.0,12.77,15.71,,47.59359,-54.27349
2017-11-24 02:20:00+00:00,266.0,269.0,13.0,15.65,,47.59359,-54.27349
2017-11-24 02:30:00+00:00,266.0,273.0,12.86,16.6,,47.59359,-54.27349
2017-11-24 02:40:00+00:00,275.0,279.0,11.94,13.86,,47.59359,-54.27349
2017-11-24 02:50:00+00:00,267.0,265.0,14.4,17.36,,47.59359,-54.27349
2017-11-24 03:00:00+00:00,273.0,276.0,14.34,16.06,,47.59359,-54.27349
2017-11-24 03:10:00+00:00,274.0,277.0,11.62,13.16,,47.59359,-54.27349
2017-11-24 03:20:00+00:00,269.0,273.0,10.7,13.31,,47.59359,-54.27349
2017-11-24 03:30:00+00:00,277.0,276.0,11.11,12.64,,47.59359,-54.27349
2017-11-24 03:40:00+00:00,282.0,284.0,12.93,16.56,,47.59359,-54.27349
2017-11-24 03:50:00+00:00,270.0,276.0,11.83,13.35,,47.59359,-54.27349
2017-11-24 04:00:00+00:00,266.0,263.0,11.18,12.82,,47.59359,-54.27349
2017-11-24 04:10:00+00:00,281.0,273.0,9.79,11.14,,47.59359,-54.27349
2017-11-24 04:20:00+00:00,277.0,277.0,10.62,12.45,,47.59359,-54.27349
2017-11-24 04:30:00+00:00,274.0,276.0,10.95,12.24,,47.59359,-54.27349
2017-11-24 04:40:00+00:00,266.0,262.0,10.46,13.12,,47.59359,-54.27349
2017-11-24 04:50:00+00:00,268.0,265.0,9.13,12.04,,47.59359,-54.27349
2017-11-24 05:00:00+00:00,268.0,269.0,12.42,13.58,,47.59359,-54.27349
2017-11-24 05:10:00+00:00,271.0,266.0,12.91,15.05,,47.59359,-54.27349
2017-11-24 05:20:00+00:00,265.0,266.0,14.11,16.63,,47.59359,-54.27349
2017-11-24 05:30:00+00:00,276.0,275.0,13.05,15.34,,47.59359,-54.27349
2017-11-24 05:40:00+00:00,267.0,260.0,12.71,14.38,,47.59359,-54.27349
2017-11-24 05:50:00+00:00,272.0,276.0,10.41,11.98,,47.59359,-54.27349
2017-11-24 06:00:00+00:00,270.0,272.0,8.71,10.31,,47.59359,-54.27349
2017-11-24 06:10:00+00:00,270.0,268.0,12.94,14.81,,47.59359,-54.27349
2017-11-24 06:20:00+00:00,261.0,261.0,11.44,13.31,,47.59359,-54.27349
2017-11-24 06:30:00+00:00,267.0,263.0,13.42,17.37,,47.59359,-54.27349
2017-11-24 06:40:00+00:00,273.0,270.0,12.79,14.57,,47.59359,-54.27349
2017-11-24 06:50:00+00:00,260.0,263.0,13.06,14.93,,47.59359,-54.27349
2017-11-24 07:00:00+00:00,261.0,269.0,13.01,15.03,,47.59359,-54.27349
2017-11-24 07:10:00+00:00,273.0,273.0,11.68,12.96,,47.59359,-54.27349
2017-11-24 07:20:00+00:00,261.0,257.0,10.31,13.47,,47.59359,-54.27349
2017-11-24 07:30:00+00:00,272.0,270.0,10.89,12.58,,47.59359,-54.27349
2017-11-24 07:40:00+00:00,271.0,267.0,10.95,12.29,,47.59359,-54.27349
2017-11-24 07:50:00+00:00,273.0,280.0,10.99,12.52,,47.59359,-54.27349
2017-11-24 08:00:00+00:00,264.0,257.0,10.27,12.11,,47.59359,-54.27349
2017-11-24 08:10:00+00:00,260.0,261.0,9.07,10.62,,47.59359,-54.27349
2017-11-24 08:20:00+00:00,261.0,265.0,10.45,11.87,,47.59359,-54.27349
2017-11-24 08:30:00+00:00,261.0,257.0,11.94,14.08,,47.59359,-54.27349
2017-11-24 08:40:00+00:00,263.0,260.0,11.16,13.05,,47.59359,-54.27349
2017-11-24 08:50:00+00:00,260.0,265.0,10.45,12.49,,47.59359,-54.27349
2017-11-24 09:00:00+00:00,259.0,259.0,10.37,11.73,,47.59359,-54.27349
2017-11-24 09:10:00+00:00,261.0,263.0,13.26,15.55,,47.59359,-54.27349
2017-11-24 09:20:00+00:00,265.0,262.0,14.24,16.0,,47.59359,-54.27349
2017-11-24 09:30:00+00:00,264.0,258.0,12.35,15.45,,47.59359,-54.27349
2017-11-24 09:40:00+00:00,265.0,263.0,11.96,13.94,,47.59359,-54.27349
2017-11-24 09:50:00+00:00,261.0,259.0,13.3,14.87,,47.59359,-54.27349
2017-11-24 10:00:00+00:00,256.0,260.0,10.62,12.19,,47.59359,-54.27349
2017-11-24 10:10:00+00:00,254.0,253.0,11.64,13.03,,47.59359,-54.27349
2017-11-24 10:20:00+00:00,256.0,253.0,12.2,14.69,,47.59359,-54.27349
2017-11-24 10:30:00+00:00,256.0,253.0,12.56,14.34,,47.59359,-54.27349
2017-11-24 10:40:00+00:00,265.0,275.0,11.26,13.62,,47.59359,-54.27349
2017-11-24 10:50:00+00:00,249.0,246.0,11.0,12.5,,47.59359,-54.27349
2017-11-24 11:00:00+00:00,254.0,255.0,10.28,11.49,,47.59359,-54.27349
2017-11-24 11:10:00+00:00,261.0,260.0,11.25,13.74,,47.59359,-54.27349
2017-11-24 11:20:00+00:00,257.0,259.0,12.19,13.19,,47.59359,-54.27349
2017-11-24 11:30:00+00:00,262.0,261.0,10.94,12.88,,47.59359,-54.27349
2017-11-24 11:40:00+00:00,269.0,274.0,12.09,14.52,,47.59359,-54.27349
2017-11-24 11:50:00+00:00,259.0,256.0,10.38,11.61,,47.59359,-54.27349
2017-11-24 12:00:00+00:00,259.0,253.0,11.15,12.55,,47.59359,-54.27349
2017-11-24 12:10:00+00:00,260.0,256.0,10.45,11.5,,47.59359,-54.27349
2017-11-24 12:20:00+00:00,250.0,250.0,10.84,11.83,,47.59359,-54.27349
2017-11-24 12:30:00+00:00,252.0,254.0,10.54,12.02,,47.59359,-54.27349
2017-11-24 12:40:00+00:00,252.0,247.0,10.67,12.25,,47.59359,-54.27349
2017-11-24 12:50:00+00:00,246.0,250.0,10.33,12.48,,47.59359,-54.27349
2017-11-24 13:00:00+00:00,254.0,255.0,9.32,10.34,,47.59359,-54.27349
2017-11-24 13:10:00+00:00,253.0,252.0,8.59,9.61,,47.59359,-54.27349
2017-11-24 13:20:00+00:00,271.0,267.0,6.37,7.52,,47.59359,-54.27349
2017-11-24 13:30:00+00:00,269.0,260.0,9.39,11.66,,47.59359,-54.27349
2017-11-24 13:40:00+00:00,276.0,274.0,7.97,8.95,,47.59359,-54.27349
2017-11-24 13:50:00+00:00,265.0,265.0,9.21,10.83,,47.59359,-54.27349
2017-11-24 14:00:00+00:00,268.0,261.0,7.33,8.02,,47.59359,-54.27349
2017-11-24 14:10:00+00:00,263.0,265.0,8.92,11.18,,47.59359,-54.27349
2017-11-24 14:20:00+00:00,266.0,269.0,7.82,9.84,,47.59359,-54.27349
2017-11-24 14:30:00+00:00,265.0,263.0,7.95,9.51,,47.59359,-54.27349
2017-11-24 14:40:00+00:00,250.0,252.0,10.93,12.6,,47.59359,-54.27349
2017-11-24 14:50:00+00:00,248.0,247.0,8.7,9.53,,47.59359,-54.27349
2017-11-24 15:00:00+00:00,261.0,267.0,7.83,9.11,,47.59359,-54.27349
2017-11-24 15:10:00+00:00,254.0,252.0,7.95,9.14,,47.59359,-54.27349
2017-11-24 15:20:00+00:00,272.0,279.0,9.89,11.95,,47.59359,-54.27349
2017-11-24 15:30:00+00:00,271.0,266.0,10.23,11.85,,47.59359,-54.27349
2017-11-24 15:40:00+00:00,269.0,282.0,11.14,12.21,,47.59359,-54.27349
2017-11-24 15:50:00+00:00,277.0,281.0,9.54,10.81,,47.59359,-54.27349
2017-11-24 16:00:00+00:00,265.0,264.0,9.31,10.44,,47.59359,-54.27349
2017-11-24 16:10:00+00:00,261.0,260.0,9.53,10.86,,47.59359,-54.27349
2017-11-24 16:20:00+00:00,266.0,269.0,11.1,12.31,,47.59359,-54.27349
2017-11-24 16:30:00+00:00,274.0,279.0,10.65,12.24,,47.59359,-54.27349
2017-11-24 16:40:00+00:00,280.0,286.0,7.42,8.61,,47.59359,-54.27349
2017-11-24 16:50:00+00:00,285.0,288.0,9.28,10.53,,47.59359,-54.27349
2017-11-24 17:00:00+00:00,275.0,276.0,10.93,11.89,,47.59359,-54.27349
2017-11-24 17:10:00+00:00,267.0,266.0,10.61,11.7,,47.59359,-54.27349
2017-11-24 17:20:00+00:00,269.0,261.0,9.35,10.84,,47.59359,-54.27349
2017-11-24 17:30:00+00:00,263.0,267.0,12.3,13.8,,47.59359,-54.27349
2017-11-24 17:40:00+00:00,269.0,270.0,11.97,13.82,,47.59359,-54.27349
2017-11-24 17:50:00+00:00,275.0,280.0,11.45,12.61,,47.59359,-54.27349
2017-11-24 18:00:00+00:00,268.0,265.0,11.34,12.67,,47.59359,-54.27349
2017-11-24 18:10:00+00:00,266.0,268.0,11.36,12.3,,47.59359,-54.27349
2017-11-24 18:20:00+00:00,274.0,277.0,10.13,11.49,,47.59359,-54.27349
2017-11-24 18:30:00+00:00,277.0,280.0,8.63,10.59,,47.59359,-54.27349
2017-11-24 18:40:00+00:00,267.0,264.0,9.62,11.06,,47.59359,-54.27349
2017-11-24 18:50:00+00:00,277.0,281.0,9.77,11.12,,47.59359,-54.27349
2017-11-24 19:00:00+00:00,292.0,297.0,10.5,12.92,,47.59359,-54.27349
2017-11-24 19:10:00+00:00,289.0,292.0,8.93,10.41,,47.59359,-54.27349
2017-11-24 19:20:00+00:00,281.0,287.0,9.77,10.95,,47.59359,-54.27349
2017-11-24 19:30:00+00:00,279.0,283.0,8.01,9.55,,47.59359,-54.27349
2017-11-24 19:40:00+00:00,271.0,270.0,10.53,12.75,,47.59359,-54.27349
2017-11-24 19:50:00+00:00,273.0,270.0,8.97,10.83,,47.59359,-54.27349
2017-11-24 20:00:00+00:00,286.0,281.0,10.22,11.99,,47.59359,-54.27349
2017-11-24 20:10:00+00:00,275.0,269.0,9.77,12.8,,47.59359,-54.27349
2017-11-24 20:20:00+00:00,274.0,278.0,9.61,11.39,,47.59359,-54.27349
2017-11-24 20:30:00+00:00,277.0,278.0,9.09,10.24,,47.59359,-54.27349
2017-11-24 20:40:00+00:00,288.0,286.0,8.69,10.41,,47.59359,-54.27349
2017-11-24 20:50:00+00:00,276.0,279.0,8.61,10.15,,47.59359,-54.27349
2017-11-24 21:00:00+00:00,275.0,281.0,8.67,10.3,,47.59359,-54.27349
2017-11-24 21:10:00+00:00,279.0,284.0,9.06,10.68,,47.59359,-54.27349
2017-11-24 21:20:00+00:00,278.0,270.0,10.01,11.52,,47.59359,-54.27349
2017-11-24 21:30:00+00:00,281.0,283.0,9.71,11.57,,47.59359,-54.27349
2017-11-24 21:40:00+00:00,289.0,295.0,7.73,9.3,,47.59359,-54.27349
2017-11-24 21:50:00+00:00,276.0,275.0,8.5,9.73,,47.59359,-54.27349
2017-11-24 22:00:00+00:00,270.0,268.0,9.61,10.81,,47.59359,-54.27349
2017-11-24 22:10:00+00:00,272.0,266.0,9.74,11.08,,47.59359,-54.27349
2017-11-24 22:20:00+00:00,269.0,270.0,8.19,9.24,,47.59359,-54.27349
2017-11-24 22:30:00+00:00,258.0,256.0,7.87,9.18,,47.59359,-54.27349
2017-11-24 22:40:00+00:00,261.0,257.0,7.04,8.4,,47.59359,-54.27349
2017-11-24 22:50:00+00:00,254.0,259.0,6.91,7.98,,47.59359,-54.27349
2017-11-24 23:00:00+00:00,253.0,251.0,8.18,8.98,,47.59359,-54.27349
2017-11-24 23:10:00+00:00,258.0,263.0,8.38,9.62,,47.59359,-54.27349
2017-11-24 23:20:00+00:00,263.0,264.0,10.87,12.47,,47.59359,-54.27349
2017-11-24 23:30:00+00:00,262.0,265.0,10.72,11.64,,47.59359,-54.27349
2017-11-24 23:40:00+00:00,257.0,254.0,9.64,11.17,,47.59359,-54.27349
2017-11-24 23:50:00+00:00,253.0,250.0,11.73,12.77,,47.59359,-54.27349
